Location: Bosdarros
(43.2167°N, 0.3667°W)
Time: 03:08:18
(UTC+00:00)

Cosmos 1943 - Pass Details

Date: 22 April 2021
Orbit: 834 x 849 km, 71.0° (Epoch: 14 May)

Event Time Altitude Azimuth Distance (km) Brightness Sun altitude
Rises 21:42:11 0° 340° (NNW) 3,394 7.5 -26.0°
Reaches altitude 10° 21:44:48 10° 349° (N) 2,457 6.4 -26.3°
Maximum altitude 21:50:03 38° 57° (ENE) 1,250 4.0 -26.9°
Enters shadow 21:50:14 38° 62° (ENE) 1,252 4.0 -26.9°
